FW0887 Weather Reports


time (UTC)temp
C
wind
direction
speed
KPH
gust
KPH
rain 1hr
cm
rain 24hr
cm
rain mn
cm
humidity
%
barometer
mb
20260507163048 11 237 1.6 6.4 0.00 1.07 0.08 85 1014.8
20260507161550 11 240 1.6 6.4 0.00 1.07 0.08 87 1014.8
20260507160048 10 274 1.6 6.4 0.00 1.07 0.08 88 1014.8
20260507154546 10 250 1.6 6.4 0.00 1.07 0.08 86 1014.9
20260507153049 10 244 0.0 6.4 0.00 1.07 0.08 85 1014.9
20260507151545 10 301 1.6 6.4 0.00 1.07 0.08 85 1014.8
20260507150043 10 253 3.2 12.9 0.00 1.07 0.08 85 1014.7
20260507144541 10 247 1.6 8.0 0.00 1.07 0.08 85 1014.7
20260507143045 10 261 3.2 9.7 0.03 1.07 0.08 86 1014.5
20260507141545 10 277 4.8 14.5 0.03 1.07 0.08 86 1014.5
20260507140040 10 261 3.2 9.7 0.03 1.07 0.08 86 1014.4
20260507134547 10 290 3.2 9.7 0.03 1.07 0.08 85 1014.3
20260507133036 10 296 3.2 16.1 0.00 1.04 0.05 84 1014.3
20260507131539 11 248 3.2 6.4 0.00 1.04 0.05 86 1014.1
20260507130034 10 235 1.6 6.4 0.00 1.04 0.05 87 1014.0
20260507124533 10 273 1.6 4.8 0.00 1.04 0.05 86 1014.0
20260507123035 10 264 1.6 8.0 0.00 1.04 0.05 85 1013.9
20260507121530 11 277 3.2 12.9 0.00 1.04 0.05 86 1013.7
20260507120029 10 246 6.4 16.1 0.00 1.04 0.05 86 1013.4
20260507114531 10 235 3.2 14.5 0.00 1.04 0.05 86 1013.4
20260507113025 11 240 6.4 16.1 0.05 1.04 0.05 84 1013.0
20260507111524 11 227 4.8 12.9 0.05 1.04 0.05 87 1012.8
20260507110024 11 223 3.2 8.0 0.05 1.04 0.05 86 1012.8
20260507104525 10 232 4.8 9.7 0.05 1.04 0.05 85 1012.7
20260507103024 11 301 4.8 16.1 0.00 0.99 0.03 83 1012.7
20260507101521 12 236 6.4 14.5 0.00 0.99 0.03 85 1012.3
20260507100017 12 216 6.4 11.3 0.00 0.99 0.03 87 1012.3
20260507094626 11 215 6.4 14.5 0.00 0.99 0.03 87 1012.2
20260507093014 11 230 8.0 22.5 0.00 0.99 0.03 84 1012.2
20260507091513 12 211 8.0 16.1 0.00 0.99 0.03 82 1012.0
20260507090010 11 239 6.4 14.5 0.00 0.99 0.03 84 1011.9
20260507084506 11 208 4.8 17.7 0.00 0.99 0.03 86 1011.8
20260507083007 11 205 4.8 14.5 0.00 0.99 0.03 88 1011.7
20260507081512 10 226 4.8 11.3 0.00 0.99 0.03 88 1011.7
20260507080005 10 227 6.4 16.1 0.00 0.99 0.03 88 1011.7
20260507074515 10 217 8.0 16.1 0.00 0.99 0.03 86 1011.5
20260507073002 10 232 8.0 17.7 0.00 0.99 0.03 86 1011.3
20260507071501 10 242 9.7 16.1 0.00 0.99 0.03 85 1011.2
20260507070108 10 205 8.0 14.5 0.00 0.99 0.03 86 1011.0
20260507064600 10 229 6.4 14.5 0.00 0.99 0.03 87 1011.1
20260507063059 10 228 4.8 11.3 0.00 0.99 0.03 89 1010.9
20260507061557 10 222 8.0 12.9 0.00 0.99 0.03 89 1010.8
20260507060105 9 236 6.4 16.1 0.00 0.99 0.03 89 1010.7
20260507054556 9 236 4.8 11.3 0.00 0.99 0.03 90 1010.6
20260507053053 10 210 3.2 8.0 0.00 0.99 0.03 90 1010.4
20260507051548 9 248 1.6 11.3 0.00 0.99 0.03 90 1010.3
20260507050045 9 238 4.8 12.9 0.00 0.99 0.03 90 1010.2
20260507044544 9 269 3.2 14.5 0.00 0.99 0.03 90 1009.9
20260507043040 10 235 4.8 11.3 0.00 0.99 0.03 91 1009.8
20260507041538 10 196 4.8 9.7 0.00 0.99 0.03 91 1009.5
20260507040038 10 230 3.2 8.0 0.00 0.99 0.03 91 1009.3
20260507034551 10 240 4.8 12.9 0.00 0.99 0.03 91 1009.3
20260507033038 10 194 4.8 11.3 0.00 0.99 0.03 91 1009.2
20260507032159 10 203 4.8 11.3 0.00 0.99 0.03 91 1009.8
20260507031530 10 208 4.8 9.7 0.00 0.99 0.03 91 1009.1
20260507030029 10 199 4.8 9.7 0.00 0.99 0.03 91 1009.0
20260507024546 10 219 1.6 6.4 0.00 0.99 0.03 91 1008.8
20260507023027 10 210 3.2 8.0 0.00 0.99 0.03 91 1008.9
20260507022142 10 203 3.2 6.4 0.00 0.99 0.03 91 1009.7
20260507021525 10 222 3.2 11.3 0.00 0.99 0.03 91 1008.8
20260507020026 10 217 1.6 9.7 0.03 0.99 0.03 91 1008.8
20260507014535 10 239 1.6 6.4 0.03 0.99 0.03 91 1008.7
20260507013024 10 227 1.6 6.4 0.03 0.99 0.03 91 1008.6
20260507012125 11 225 1.6 3.2 0.03 0.99 0.03 91 1009.5
20260507011536 10 218 0.0 3.2 0.03 0.99 0.03 91 1008.7
20260507010021 10 218 0.0 8.0 0.00 0.99 0.00 91 1008.6
20260507004520 10 229 1.6 6.4 0.00 0.99 0.00 91 1008.5
20260507003021 10 231 3.2 8.0 0.00 0.99 0.00 91 1008.5
20260507002211 11 225 3.2 4.8 0.00 0.99 0.00 91 1009.2
20260507001518 11 229 3.2 9.7 0.00 0.99 0.00 91 1008.5
20260507000017 11 252 3.2 8.0 0.00 0.99 0.00 91 1008.5
20260506234516 11 224 1.6 6.4 0.00 0.99 0.00 92 1008.4
20260506233015 11 223 3.2 9.7 0.00 0.99 0.00 92 1008.4
20260506232241 11 225 3.2 6.4 0.00 0.99 0.00 92 1009.0
20260506231515 11 225 1.6 6.4 0.00 0.99 0.00 92 1008.3
20260506230015 11 208 0.0 4.8 0.00 0.99 0.00 92 1008.1
20260506224515 11 208 1.6 6.4 0.00 0.99 0.00 91 1008.1
20260506223011 11 193 0.0 4.8 0.00 0.99 0.00 91 1008.1
20260506222202 11 0.0 1.6 0.03 0.99 0.00 91 1008.7
20260506221510 11 193 0.0 3.2 0.00 0.99 0.00 91 1008.1
20260506220009 11 193 0.0 4.8 0.05 0.99 0.00 91 1008.0
20260506214515 11 193 0.0 3.2 0.05 0.99 0.99 91 1007.9
20260506213009 11 193 0.0 3.2 0.05 0.99 0.99 91 1007.8
20260506212203 11 0.0 0.0 0.05 0.97 0.97 91 1007.8
20260506211506 11 92 0.0 0.0 0.05 0.99 0.99 91 1007.2
20260506210006 11 89 1.6 6.4 0.15 0.94 0.94 90 1007.0
20260506204505 11 215 0.0 0.0 0.28 0.94 0.94 90 1007.5
20260506203011 11 215 0.0 0.0 0.38 0.91 0.91 90 1007.7
20260506202200 12 0.0 0.0 0.48 0.89 0.89 90 1008.2
20260506201504 11 214 0.0 1.6 0.51 0.91 0.91 90 1007.7
20260506200005 11 215 1.6 4.8 0.43 0.79 0.79 90 1007.8
20260506194503 11 211 1.6 8.0 0.30 0.66 0.66 89 1007.5
20260506193059 12 287 0.0 4.8 0.20 0.56 0.56 89 1006.9
20260506192400 12 293 1.6 4.8 0.05 0.43 0.43 89 1006.9
20260506191600 12 267 1.6 11.3 0.08 0.43 0.43 89 1006.6
20260506190059 12 224 4.8 9.7 0.00 0.36 0.36 88 1006.0
20260506184657 12 60 0.0 3.2 0.00 0.38 0.36 88 1005.6
20260506183100 12 44 0.0 4.8 0.03 0.38 0.36 88 1005.3
20260506182332 12 45 4.8 6.4 0.18 0.38 0.36 87 1005.4
20260506181556 12 42 1.6 6.4 0.13 0.38 0.36 88 1004.9
20260506180055 12 49 3.2 6.4 0.36 0.38 0.36 87 1004.9
20260506174601 12 43 3.2 8.0 0.36 2.59 0.36 85 1005.0
20260506173125 12 288 3.2 12.9 0.33 2.57 0.33 82 1005.7
20260506172121 13 338 6.4 16.1 0.28 1.45 0.28 78 1005.4
20260506172058 15 293 9.7 16.1 0.08 2.31 0.08 73 1005.4
20260506171553 14 253 6.4 19.3 0.23 2.44 0.23 77 1005.1
20260506170052 17 310 0.0 3.2 0.00 2.21 0.00 70 1004.3
20260506164552 17 315 0.0 6.4 0.00 2.21 0.00 66 1003.9